Location: Krasnoyarskiy Pitomnik
(51.1333°N, 71.6167°E)
Time: 04:13:27
(UTC+00:00)

S-56A Canister/Altair - All Passes

Search period start: 22 April 2024 00:00
Search period end: 02 May 2024 00:00
Orbit: 639 x 2488 km, 38.9° (Epoch: 21 April)

Date Brightness Start Highest point End Pass type
(mag) Time Alt. Az. Time Alt. Az. Time Alt. Az.
22 Apr - 11:57:22 10° SSW 12:01:30 22° SSE 12:06:45 10° ESE daylight
22 Apr - 13:58:49 10° WSW 14:04:19 31° S 14:11:59 10° ESE daylight
22 Apr - 16:01:44 10° WSW 16:07:47 25° SSW 16:15:50 10° SSE visible
22 Apr - 18:08:35 10° SW 18:11:19 11° SW 18:14:16 10° SSW visible
23 Apr - 11:24:40 10° SSW 11:28:16 19° SSE 11:32:38 10° ESE daylight
23 Apr - 13:25:49 10° SW 13:30:55 30° S 13:37:54 10° ESE daylight
23 Apr - 15:28:32 10° WSW 15:34:14 25° SSW 15:41:52 10° SSE visible
23 Apr - 17:34:27 10° SW 17:37:43 12° SSW 17:41:21 10° SSW visible
24 Apr - 10:52:03 10° S 10:55:03 16° SSE 10:58:31 10° ESE daylight
24 Apr - 12:52:52 10° SW 12:57:34 28° S 13:03:51 10° ESE daylight
24 Apr - 14:55:23 10° WSW 15:00:44 25° SSW 15:07:53 10° SE visible
24 Apr - 17:00:38 10° SW 17:04:09 13° SSW 17:08:08 10° S visible
25 Apr - 10:19:35 10° S 10:21:51 13° SSE 10:24:20 10° SE daylight
25 Apr - 12:19:54 10° SW 12:24:15 26° S 12:29:52 10° ESE daylight
25 Apr - 14:22:16 10° WSW 14:27:17 25° S 14:33:56 10° SE daylight
25 Apr - 16:27:01 10° SW 16:30:37 13° SSW 16:34:46 10° S visible
26 Apr - 09:47:34 10° SSE 09:48:39 11° SSE 09:49:46 10° SE daylight
26 Apr - 11:46:58 10° SW 11:50:57 24° S 11:55:57 10° ESE daylight
26 Apr - 13:49:11 10° WSW 13:53:52 24° S 14:00:01 10° SE daylight
26 Apr - 15:53:31 10° SW 15:57:06 14° SSW 16:01:17 10° S visible
27 Apr - 11:14:03 10° SW 11:17:42 21° SSE 11:22:05 10° ESE daylight
27 Apr - 13:16:07 10° WSW 13:20:29 24° S 13:26:08 10° SE daylight
27 Apr - 15:20:07 10° SW 15:23:38 14° SSW 15:27:45 10° S visible
28 Apr - 10:41:08 10° SSW 10:44:28 19° SSE 10:48:17 10° ESE daylight
28 Apr - 12:43:04 10° SW 12:47:09 23° S 12:52:18 10° SE daylight
28 Apr - 14:46:48 10° SW 14:50:10 15° SSW 14:54:10 10° S daylight
29 Apr - 10:08:15 10° SSW 10:11:14 17° SSE 10:14:31 10° ESE daylight
29 Apr - 12:10:01 10° SW 12:13:50 22° S 12:18:32 10° SE daylight
29 Apr - 14:13:32 10° SW 14:16:46 15° SSW 14:20:36 10° S daylight
30 Apr - 09:35:22 10° SSW 09:38:00 15° SSE 09:40:48 10° SE daylight
30 Apr - 11:36:57 10° SW 11:40:33 21° S 11:44:49 10° SE daylight
30 Apr - 13:40:18 10° SW 13:43:24 15° SSW 13:47:01 10° SSE daylight
01 May - 09:02:29 10° SSW 09:04:46 14° SSE 09:07:07 10° SE daylight
01 May - 11:03:52 10° SW 11:07:16 20° S 11:11:11 10° SE daylight
01 May - 13:07:05 10° SW 13:10:02 15° SSW 13:13:28 10° SSE daylight
